Torna al catalogo

FENGYUN 1C DEB

AttivoPO
NORAD 30146·DEBRIS·🇨🇳 China

Lanciato May 10, 1999 da Taiyuan Satellite Launch Center

Loading…

Prossimi Passaggi (prossime 24 ore)

TLE

AggiornatoSource: Space-Track

Epoca: Sep 14, 2026, 14:25 UTC

1 30146U 99025TB  26257.60114793  .00000350  00000-0  28881-3 0  9990
2 30146  98.0543  23.7470 0178490  76.4326 347.3267 13.86984942992416

Traccia FENGYUN 1C DEB in tempo reale con AllMySat

Download on the App Store